Time,TemperatureF,DewpointF,PressureIn,WindDirection,WindDirectionDegrees,WindSpeedMPH,WindSpeedGustMPH,Humidity,HourlyPrecipIn,Conditions,Clouds,dailyrainin,SoftwareType,DateUTC
2013-09-04 00:00:00,63.9,58.7,30.35,SE,135,0.0,0.0,83,0.00,,,0.00,WUHU21636XXSP,2013-09-03 22:00:00,
2013-09-04 00:05:00,63.9,59.0,30.35,SE,135,0.0,0.0,84,0.00,,,0.00,WUHU21636XXSP,2013-09-03 22:05:00,
2013-09-04 00:10:00,63.7,58.8,30.35,NW,315,0.0,0.0,84,0.00,,,0.00,WUHU21636XXSP,2013-09-03 22:10:00,
2013-09-04 00:15:00,63.7,58.8,30.35,West,270,0.0,0.0,84,0.00,,,0.00,WUHU21636XXSP,2013-09-03 22:15:00,
2013-09-04 00:20:00,63.5,58.6,30.35,WNW,293,0.0,0.0,84,0.00,,,0.00,WUHU21636XXSP,2013-09-03 22:20:00,
2013-09-04 00:25:00,63.5,58.6,30.35,WNW,293,2.5,2.5,84,0.00,,,0.00,WUHU21636XXSP,2013-09-03 22:25:00,
2013-09-04 00:30:00,63.5,58.6,30.35,WNW,293,0.0,2.5,84,0.00,,,0.00,WUHU21636XXSP,2013-09-03 22:30:00,
2013-09-04 00:35:00,63.5,58.6,30.35,NW,315,0.0,2.5,84,0.00,,,0.00,WUHU21636XXSP,2013-09-03 22:35:00,
2013-09-04 00:40:00,63.5,58.6,30.35,WNW,293,1.3,1.3,84,0.00,,,0.00,WUHU21636XXSP,2013-09-03 22:40:00,
2013-09-04 00:45:00,63.5,58.6,30.35,WNW,293,1.1,1.3,84,0.00,,,0.00,WUHU21636XXSP,2013-09-03 22:45:00,
2013-09-04 00:50:00,63.5,58.9,30.35,WNW,293,0.0,1.3,85,0.00,,,0.00,WUHU21636XXSP,2013-09-03 22:50:00,
2013-09-04 00:55:00,63.3,58.7,30.35,WNW,293,1.8,1.8,85,0.00,,,0.00,WUHU21636XXSP,2013-09-03 22:55:00,
2013-09-04 01:00:00,63.3,58.7,30.35,WNW,293,1.6,1.8,85,0.00,,,0.00,WUHU21636XXSP,2013-09-03 23:00:00,
2013-09-04 01:05:00,63.1,58.8,30.35,WNW,293,0.4,1.8,86,0.00,,,0.00,WUHU21636XXSP,2013-09-03 23:05:00,
2013-09-04 01:10:00,63.1,58.8,30.35,WNW,293,2.0,2.0,86,0.00,,,0.00,WUHU21636XXSP,2013-09-03 23:10:00,
2013-09-04 01:15:00,63.1,58.8,30.35,WNW,293,0.0,2.0,86,0.00,,,0.00,WUHU21636XXSP,2013-09-03 23:15:00,
2013-09-04 01:20:00,63.1,58.8,30.35,WNW,293,0.0,2.0,86,0.00,,,0.00,WUHU21636XXSP,2013-09-03 23:20:00,
2013-09-04 01:25:00,63.0,58.7,30.35,WNW,293,0.0,0.0,86,0.00,,,0.00,WUHU21636XXSP,2013-09-03 23:25:00,
2013-09-04 01:30:00,63.0,58.7,30.35,WNW,293,0.0,0.0,86,0.00,,,0.00,WUHU21636XXSP,2013-09-03 23:30:00,
2013-09-04 01:35:00,63.0,58.7,30.35,WNW,293,0.0,0.0,86,0.00,,,0.00,WUHU21636XXSP,2013-09-03 23:35:00,
2013-09-04 01:40:00,62.8,58.6,30.35,WNW,293,0.0,0.0,86,0.00,,,0.00,WUHU21636XXSP,2013-09-03 23:40:00,
2013-09-04 01:45:00,62.8,58.9,30.35,WNW,293,0.0,0.0,87,0.00,,,0.00,WUHU21636XXSP,2013-09-03 23:45:00,
2013-09-04 01:50:00,62.8,58.9,30.35,WNW,293,0.0,0.0,87,0.00,,,0.00,WUHU21636XXSP,2013-09-03 23:50:00,
2013-09-04 01:55:00,62.8,58.9,30.35,WNW,293,0.0,0.0,87,0.00,,,0.00,WUHU21636XXSP,2013-09-03 23:55:00,
2013-09-04 02:00:00,62.8,58.9,30.35,WNW,293,1.1,1.1,87,0.00,,,0.00,WUHU21636XXSP,2013-09-04 00:00:00,
2013-09-04 02:05:00,62.6,58.7,30.35,ESE,113,0.0,1.1,87,0.00,,,0.00,WUHU21636XXSP,2013-09-04 00:05:00,
2013-09-04 02:10:00,62.4,58.5,30.35,ESE,113,0.0,1.1,87,0.00,,,0.00,WUHU21636XXSP,2013-09-04 00:10:00,
2013-09-04 02:15:00,62.4,58.8,30.35,ESE,113,0.0,0.0,88,0.00,,,0.00,WUHU21636XXSP,2013-09-04 00:15:00,
2013-09-04 02:20:00,62.4,58.8,30.35,ESE,113,0.0,0.0,88,0.00,,,0.00,WUHU21636XXSP,2013-09-04 00:20:00,
2013-09-04 02:25:00,62.4,58.8,30.35,NW,315,0.0,0.0,88,0.00,,,0.00,WUHU21636XXSP,2013-09-04 00:25:00,
2013-09-04 02:30:00,62.4,58.8,30.35,WNW,293,0.0,0.0,88,0.00,,,0.00,WUHU21636XXSP,2013-09-04 00:30:00,
2013-09-04 02:35:00,62.4,58.8,30.35,WNW,293,0.0,0.0,88,0.00,,,0.00,WUHU21636XXSP,2013-09-04 00:35:00,
2013-09-04 02:40:00,62.4,58.8,30.34,WNW,293,0.0,0.0,88,0.00,,,0.00,WUHU21636XXSP,2013-09-04 00:40:00,
2013-09-04 02:45:00,62.2,58.6,30.35,WNW,293,0.0,0.0,88,0.00,,,0.00,WUHU21636XXSP,2013-09-04 00:45:00,
2013-09-04 02:50:00,62.2,58.6,30.35,WNW,293,0.0,0.0,88,0.00,,,0.00,WUHU21636XXSP,2013-09-04 00:50:00,
2013-09-04 02:55:00,62.2,58.6,30.35,WNW,293,0.0,0.0,88,0.00,,,0.00,WUHU21636XXSP,2013-09-04 00:55:00,
2013-09-04 03:00:00,62.2,58.6,30.35,WNW,293,0.0,0.0,88,0.00,,,0.00,WUHU21636XXSP,2013-09-04 01:00:00,
2013-09-04 03:05:00,62.2,58.9,30.35,WNW,293,0.0,0.0,89,0.00,,,0.00,WUHU21636XXSP,2013-09-04 01:05:00,
2013-09-04 03:10:00,62.2,58.9,30.34,WNW,293,0.0,0.0,89,0.00,,,0.00,WUHU21636XXSP,2013-09-04 01:10:00,
2013-09-04 03:15:00,62.2,58.9,30.34,WNW,293,0.0,0.0,89,0.00,,,0.00,WUHU21636XXSP,2013-09-04 01:15:00,
2013-09-04 03:20:00,62.2,58.9,30.34,WNW,293,0.0,0.0,89,0.00,,,0.00,WUHU21636XXSP,2013-09-04 01:20:00,
2013-09-04 03:25:00,62.2,59.2,30.34,WNW,293,0.0,0.0,90,0.00,,,0.00,WUHU21636XXSP,2013-09-04 01:25:00,
2013-09-04 03:30:00,62.2,58.9,30.34,WNW,293,0.0,0.0,89,0.00,,,0.00,WUHU21636XXSP,2013-09-04 01:30:00,
2013-09-04 03:35:00,62.2,59.2,30.34,WNW,293,0.0,0.0,90,0.00,,,0.00,WUHU21636XXSP,2013-09-04 01:35:00,
2013-09-04 03:40:00,62.2,59.2,30.34,WNW,293,0.0,0.0,90,0.00,,,0.00,WUHU21636XXSP,2013-09-04 01:40:00,
2013-09-04 03:45:00,62.2,59.2,30.34,WNW,293,0.0,0.0,90,0.00,,,0.00,WUHU21636XXSP,2013-09-04 01:45:00,
2013-09-04 03:50:00,62.2,59.2,30.34,WNW,293,0.0,0.0,90,0.00,,,0.00,WUHU21636XXSP,2013-09-04 01:50:00,
2013-09-04 03:55:00,62.1,59.1,30.34,WNW,293,0.0,0.0,90,0.00,,,0.00,WUHU21636XXSP,2013-09-04 01:55:00,
2013-09-04 04:00:00,61.9,58.9,30.33,WNW,293,0.0,0.0,90,0.00,,,0.00,WUHU21636XXSP,2013-09-04 02:00:00,
2013-09-04 04:05:00,61.9,58.9,30.33,WNW,293,0.0,0.0,90,0.00,,,0.00,WUHU21636XXSP,2013-09-04 02:05:00,
2013-09-04 04:10:00,61.9,58.9,30.33,WNW,293,0.0,0.0,90,0.00,,,0.00,WUHU21636XXSP,2013-09-04 02:10:00,
2013-09-04 04:15:00,61.9,58.9,30.33,WNW,293,0.0,0.0,90,0.00,,,0.00,WUHU21636XXSP,2013-09-04 02:15:00,
2013-09-04 04:20:00,61.9,59.2,30.33,WNW,293,0.0,0.0,91,0.00,,,0.00,WUHU21636XXSP,2013-09-04 02:20:00,
2013-09-04 04:25:00,61.7,59.0,30.33,WNW,293,0.0,0.0,91,0.00,,,0.00,WUHU21636XXSP,2013-09-04 02:25:00,
2013-09-04 04:30:00,61.7,59.0,30.33,WNW,293,0.0,0.0,91,0.00,,,0.00,WUHU21636XXSP,2013-09-04 02:30:00,
2013-09-04 04:35:00,61.5,58.8,30.33,WNW,293,0.0,0.0,91,0.00,,,0.00,WUHU21636XXSP,2013-09-04 02:35:00,
2013-09-04 04:40:00,61.5,58.8,30.33,WNW,293,0.0,0.0,91,0.00,,,0.00,WUHU21636XXSP,2013-09-04 02:40:00,
2013-09-04 04:45:00,61.5,58.8,30.33,WNW,293,0.0,0.0,91,0.00,,,0.00,WUHU21636XXSP,2013-09-04 02:45:00,
2013-09-04 04:50:00,61.3,58.6,30.33,WNW,293,0.0,0.0,91,0.00,,,0.00,WUHU21636XXSP,2013-09-04 02:50:00,
2013-09-04 04:55:00,61.3,58.6,30.33,WNW,293,0.0,0.0,91,0.00,,,0.00,WUHU21636XXSP,2013-09-04 02:55:00,
2013-09-04 05:00:00,61.3,58.6,30.33,WNW,293,0.0,0.0,91,0.00,,,0.00,WUHU21636XXSP,2013-09-04 03:00:00,
2013-09-04 05:05:00,61.3,58.6,30.33,WNW,293,0.0,0.0,91,0.00,,,0.00,WUHU21636XXSP,2013-09-04 03:05:00,
2013-09-04 05:10:00,61.3,58.6,30.33,WNW,293,0.0,0.0,91,0.00,,,0.00,WUHU21636XXSP,2013-09-04 03:10:00,
2013-09-04 05:15:00,61.3,58.6,30.33,WNW,293,0.0,0.0,91,0.00,,,0.00,WUHU21636XXSP,2013-09-04 03:15:00,
2013-09-04 05:20:00,61.3,58.6,30.33,WNW,293,0.0,0.0,91,0.00,,,0.00,WUHU21636XXSP,2013-09-04 03:20:00,
2013-09-04 05:25:00,61.3,58.6,30.33,WNW,293,0.0,0.0,91,0.00,,,0.00,WUHU21636XXSP,2013-09-04 03:25:00,
2013-09-04 05:30:00,61.3,58.6,30.33,WNW,293,0.0,0.0,91,0.00,,,0.00,WUHU21636XXSP,2013-09-04 03:30:00,
2013-09-04 05:35:00,61.2,58.5,30.33,WNW,293,0.0,0.0,91,0.00,,,0.00,WUHU21636XXSP,2013-09-04 03:35:00,
2013-09-04 05:40:00,61.0,58.3,30.33,WNW,293,0.0,0.0,91,0.00,,,0.00,WUHU21636XXSP,2013-09-04 03:40:00,
2013-09-04 05:45:00,60.8,58.1,30.33,WNW,293,0.0,0.0,91,0.00,,,0.00,WUHU21636XXSP,2013-09-04 03:45:00,
2013-09-04 05:50:00,60.6,57.9,30.33,WNW,293,0.0,0.0,91,0.00,,,0.00,WUHU21636XXSP,2013-09-04 03:50:00,
2013-09-04 05:55:00,60.4,57.7,30.33,WNW,293,0.0,0.0,91,0.00,,,0.00,WUHU21636XXSP,2013-09-04 03:55:00,
2013-09-04 06:00:00,60.4,57.7,30.32,WNW,293,0.0,0.0,91,0.00,,,0.00,WUHU21636XXSP,2013-09-04 04:00:00,
2013-09-04 06:05:00,60.4,57.7,30.33,WNW,293,0.0,0.0,91,0.00,,,0.00,WUHU21636XXSP,2013-09-04 04:05:00,
2013-09-04 06:10:00,60.4,57.7,30.32,WNW,293,0.0,0.0,91,0.00,,,0.00,WUHU21636XXSP,2013-09-04 04:10:00,
2013-09-04 06:15:00,60.4,57.7,30.32,WNW,293,0.0,0.0,91,0.00,,,0.00,WUHU21636XXSP,2013-09-04 04:15:00,
2013-09-04 06:20:00,60.4,57.7,30.33,ESE,113,0.0,0.0,91,0.00,,,0.00,WUHU21636XXSP,2013-09-04 04:20:00,
2013-09-04 06:25:00,60.4,58.0,30.32,SE,135,0.0,0.0,92,0.00,,,0.00,WUHU21636XXSP,2013-09-04 04:25:00,
2013-09-04 06:30:00,60.4,58.0,30.33,SE,135,0.0,0.0,92,0.00,,,0.00,WUHU21636XXSP,2013-09-04 04:30:00,
2013-09-04 06:35:00,60.4,58.0,30.33,SE,135,0.0,0.0,92,0.00,,,0.00,WUHU21636XXSP,2013-09-04 04:35:00,
2013-09-04 06:40:00,60.4,58.0,30.33,SE,135,0.0,0.0,92,0.00,,,0.00,WUHU21636XXSP,2013-09-04 04:40:00,
2013-09-04 06:45:00,60.3,57.9,30.33,SE,135,0.0,0.0,92,0.00,,,0.00,WUHU21636XXSP,2013-09-04 04:45:00,
2013-09-04 06:50:00,60.1,57.7,30.33,SE,135,0.0,0.0,92,0.00,,,0.00,WUHU21636XXSP,2013-09-04 04:50:00,
2013-09-04 06:55:00,60.1,57.7,30.33,SE,135,0.0,0.0,92,0.00,,,0.00,WUHU21636XXSP,2013-09-04 04:55:00,
2013-09-04 07:00:00,60.1,57.7,30.33,SE,135,0.0,0.0,92,0.00,,,0.00,WUHU21636XXSP,2013-09-04 05:00:00,
2013-09-04 07:05:00,60.1,57.7,30.33,SE,135,0.0,0.0,92,0.00,,,0.00,WUHU21636XXSP,2013-09-04 05:05:00,
2013-09-04 07:10:00,60.1,57.7,30.33,SE,135,0.0,0.0,92,0.00,,,0.00,WUHU21636XXSP,2013-09-04 05:10:00,
2013-09-04 07:15:00,60.3,57.9,30.33,SE,135,0.0,0.0,92,0.00,,,0.00,WUHU21636XXSP,2013-09-04 05:15:00,
2013-09-04 07:20:00,60.4,58.0,30.33,SE,135,0.4,0.4,92,0.00,,,0.00,WUHU21636XXSP,2013-09-04 05:20:00,
2013-09-04 07:25:00,60.4,58.0,30.33,SE,135,0.0,0.4,92,0.00,,,0.00,WUHU21636XXSP,2013-09-04 05:25:00,
2013-09-04 07:30:00,60.4,58.0,30.33,SE,135,0.0,0.4,92,0.00,,,0.00,WUHU21636XXSP,2013-09-04 05:30:00,
2013-09-04 07:35:00,60.4,58.3,30.33,SE,135,0.0,0.0,93,0.00,,,0.00,WUHU21636XXSP,2013-09-04 05:35:00,
2013-09-04 07:40:00,60.6,58.2,30.34,SE,135,1.1,1.1,92,0.00,,,0.00,WUHU21636XXSP,2013-09-04 05:40:00,
2013-09-04 07:45:00,60.6,58.2,30.33,SE,135,0.0,1.1,92,0.00,,,0.00,WUHU21636XXSP,2013-09-04 05:45:00,
2013-09-04 07:50:00,60.8,58.7,30.33,SE,135,0.0,1.1,93,0.00,,,0.00,WUHU21636XXSP,2013-09-04 05:50:00,
2013-09-04 07:55:00,61.0,58.9,30.33,SE,135,0.0,0.0,93,0.00,,,0.00,WUHU21636XXSP,2013-09-04 05:55:00,
2013-09-04 08:00:00,61.0,58.9,30.33,SE,135,0.0,0.0,93,0.00,,,0.00,WUHU21636XXSP,2013-09-04 06:00:00,
2013-09-04 08:05:00,61.2,58.8,30.33,SE,135,0.0,0.0,92,0.00,,,0.00,WUHU21636XXSP,2013-09-04 06:05:00,
2013-09-04 08:10:00,61.3,58.9,30.33,SE,135,0.0,0.0,92,0.00,,,0.00,WUHU21636XXSP,2013-09-04 06:10:00,
2013-09-04 08:15:00,61.3,59.2,30.33,SE,135,0.7,0.7,93,0.00,,,0.00,WUHU21636XXSP,2013-09-04 06:15:00,
2013-09-04 08:20:00,61.3,58.9,30.33,SE,135,0.0,0.7,92,0.00,,,0.00,WUHU21636XXSP,2013-09-04 06:20:00,
2013-09-04 08:25:00,61.5,59.1,30.33,NW,315,1.1,1.1,92,0.00,,,0.00,WUHU21636XXSP,2013-09-04 06:25:00,
2013-09-04 08:30:00,61.7,59.3,30.34,WNW,293,0.0,1.1,92,0.00,,,0.00,WUHU21636XXSP,2013-09-04 06:30:00,
2013-09-04 08:35:00,61.9,59.5,30.33,WNW,293,0.0,1.1,92,0.00,,,0.00,WUHU21636XXSP,2013-09-04 06:35:00,
2013-09-04 08:40:00,62.2,59.8,30.33,WNW,293,0.0,0.0,92,0.00,,,0.00,WUHU21636XXSP,2013-09-04 06:40:00,
2013-09-04 08:45:00,62.2,59.8,30.33,SE,135,0.0,0.0,92,0.00,,,0.00,WUHU21636XXSP,2013-09-04 06:45:00,
2013-09-04 08:50:00,62.4,60.0,30.33,SE,135,0.0,0.0,92,0.00,,,0.00,WUHU21636XXSP,2013-09-04 06:50:00,
2013-09-04 08:55:00,62.6,60.2,30.34,ESE,113,0.0,0.0,92,0.00,,,0.00,WUHU21636XXSP,2013-09-04 06:55:00,
2013-09-04 09:00:00,62.8,60.4,30.34,ESE,113,0.0,0.0,92,0.00,,,0.00,WUHU21636XXSP,2013-09-04 07:00:00,
2013-09-04 09:05:00,62.8,60.4,30.34,ESE,113,0.0,0.0,92,0.00,,,0.00,WUHU21636XXSP,2013-09-04 07:05:00,
2013-09-04 09:10:00,62.8,60.4,30.34,East,90,0.0,0.0,92,0.00,,,0.00,WUHU21636XXSP,2013-09-04 07:10:00,
2013-09-04 09:15:00,63.0,60.6,30.34,East,90,0.0,0.0,92,0.00,,,0.00,WUHU21636XXSP,2013-09-04 07:15:00,
2013-09-04 09:20:00,63.1,60.7,30.34,West,270,0.0,0.0,92,0.00,,,0.00,WUHU21636XXSP,2013-09-04 07:20:00,
2013-09-04 09:25:00,63.1,60.7,30.34,WNW,293,0.0,0.0,92,0.00,,,0.00,WUHU21636XXSP,2013-09-04 07:25:00,
2013-09-04 09:30:00,63.3,60.9,30.34,WNW,293,0.0,0.0,92,0.00,,,0.00,WUHU21636XXSP,2013-09-04 07:30:00,
2013-09-04 09:35:00,63.3,60.9,30.34,WNW,293,0.0,0.0,92,0.00,,,0.00,WUHU21636XXSP,2013-09-04 07:35:00,
2013-09-04 09:40:00,63.3,60.6,30.34,WNW,293,0.0,0.0,91,0.00,,,0.00,WUHU21636XXSP,2013-09-04 07:40:00,
2013-09-04 09:45:00,63.3,60.6,30.34,WNW,293,0.0,0.0,91,0.00,,,0.00,WUHU21636XXSP,2013-09-04 07:45:00,
2013-09-04 09:50:00,63.3,60.6,30.34,WNW,293,0.0,0.0,91,0.00,,,0.00,WUHU21636XXSP,2013-09-04 07:50:00,
2013-09-04 09:55:00,63.5,60.8,30.34,WNW,293,0.0,0.0,91,0.00,,,0.00,WUHU21636XXSP,2013-09-04 07:55:00,
2013-09-04 10:00:00,63.5,60.8,30.34,WNW,293,0.0,0.0,91,0.00,,,0.00,WUHU21636XXSP,2013-09-04 08:00:00,
2013-09-04 10:05:00,63.5,60.8,30.34,WNW,293,0.0,0.0,91,0.00,,,0.00,WUHU21636XXSP,2013-09-04 08:05:00,
2013-09-04 10:10:00,63.7,60.7,30.34,WNW,293,0.0,0.0,90,0.00,,,0.00,WUHU21636XXSP,2013-09-04 08:10:00,
2013-09-04 10:15:00,64.0,60.7,30.34,WNW,293,0.0,0.0,89,0.00,,,0.00,WUHU21636XXSP,2013-09-04 08:15:00,
2013-09-04 10:20:00,64.2,60.9,30.34,WNW,293,0.0,0.0,89,0.00,,,0.00,WUHU21636XXSP,2013-09-04 08:20:00,
2013-09-04 10:25:00,64.6,61.3,30.34,WNW,293,0.4,0.4,89,0.00,,,0.00,WUHU21636XXSP,2013-09-04 08:25:00,
2013-09-04 10:30:00,65.1,61.1,30.34,West,270,0.0,0.4,87,0.00,,,0.00,WUHU21636XXSP,2013-09-04 08:30:00,
2013-09-04 10:35:00,65.3,61.3,30.33,WNW,293,0.9,0.9,87,0.00,,,0.00,WUHU21636XXSP,2013-09-04 08:35:00,
2013-09-04 10:40:00,65.5,61.5,30.34,WNW,293,0.0,0.9,87,0.00,,,0.00,WUHU21636XXSP,2013-09-04 08:40:00,
2013-09-04 10:45:00,65.8,61.5,30.34,WNW,293,1.3,1.3,86,0.00,,,0.00,WUHU21636XXSP,2013-09-04 08:45:00,
2013-09-04 10:50:00,65.8,61.5,30.34,North,0,0.0,1.3,86,0.00,,,0.00,WUHU21636XXSP,2013-09-04 08:50:00,
2013-09-04 10:55:00,66.0,62.0,30.34,North,0,0.0,1.3,87,0.00,,,0.00,WUHU21636XXSP,2013-09-04 08:55:00,
2013-09-04 11:00:00,66.6,61.6,30.34,North,0,0.0,0.0,84,0.00,,,0.00,WUHU21636XXSP,2013-09-04 09:00:00,
2013-09-04 11:09:00,67.1,61.7,30.34,NNW,337,0.0,1.3,83,0.00,,,0.00,WUHU21636XXSP,2013-09-04 09:09:00,
2013-09-04 11:15:00,67.1,61.8,30.34,North,0,0.0,1.3,83,0.00,,,0.00,WUHU21636XXSP,2013-09-04 09:15:00,
2013-09-04 11:20:00,67.1,61.8,30.33,SE,135,0.9,0.9,83,0.00,,,0.00,WUHU21636XXSP,2013-09-04 09:20:00,
2013-09-04 11:25:00,67.1,61.8,30.33,SE,135,0.0,0.9,83,0.00,,,0.00,WUHU21636XXSP,2013-09-04 09:25:00,
2013-09-04 11:30:00,67.1,61.8,30.32,SE,135,0.0,1.0,83,0.00,SCT,,0.00,WeatherDisplay:10.37,2013-09-04 09:30:00,
2013-09-04 11:35:00,67.1,61.8,30.33,SE,135,0.0,0.0,83,0.00,,,0.00,WUHU21636XXSP,2013-09-04 09:35:00,
2013-09-04 11:40:00,67.3,62.0,30.33,SE,135,0.0,0.0,83,0.00,,,0.00,WUHU21636XXSP,2013-09-04 09:40:00,
2013-09-04 11:45:00,68.2,62.2,30.33,West,270,0.0,0.0,81,0.00,,,0.00,WUHU21636XXSP,2013-09-04 09:45:00,
2013-09-04 11:50:00,68.2,62.1,30.32,SW,228,0.0,0.0,81,0.00,BKN,,0.00,WeatherDisplay:10.37,2013-09-04 09:50:00,
2013-09-04 11:55:00,68.9,61.9,30.33,WNW,293,0.0,0.0,78,0.00,,,0.00,WUHU21636XXSP,2013-09-04 09:55:00,
2013-09-04 12:00:00,69.4,62.3,30.34,WNW,293,0.0,0.0,78,0.00,,,0.00,WUHU21636XXSP,2013-09-04 10:00:00,
2013-09-04 12:01:00,68.9,61.8,30.32,West,281,0.0,0.0,78,0.00,BKN,,0.00,WeatherDisplay:10.37,2013-09-04 10:01:00,
2013-09-04 12:05:00,69.6,61.8,30.34,WNW,293,0.0,0.0,76,0.00,,,0.00,WUHU21636XXSP,2013-09-04 10:05:00,
2013-09-04 12:10:00,70.0,62.2,30.33,WNW,293,0.0,0.0,76,0.00,,,0.00,WUHU21636XXSP,2013-09-04 10:10:00,
2013-09-04 12:11:00,70.0,62.1,30.32,WNW,292,0.0,0.0,76,0.00,BKN,,0.00,WeatherDisplay:10.37,2013-09-04 10:11:00,
2013-09-04 12:15:00,69.4,61.3,30.33,ESE,113,1.3,1.3,75,0.00,,,0.00,WUHU21636XXSP,2013-09-04 10:15:00,
2013-09-04 12:20:00,70.0,62.1,30.32,ESE,112,0.0,1.0,76,0.00,BKN,,0.00,WeatherDisplay:10.37,2013-09-04 10:20:00,
2013-09-04 12:25:00,70.5,62.3,30.32,ESE,113,0.0,1.3,75,0.00,,,0.00,WUHU21636XXSP,2013-09-04 10:25:00,
2013-09-04 12:30:00,70.5,62.2,30.32,ESE,112,0.0,0.0,75,0.00,BKN,,0.00,WeatherDisplay:10.37,2013-09-04 10:30:00,
2013-09-04 12:35:00,70.9,62.0,30.32,SE,135,1.3,1.8,73,0.00,,,0.00,WUHU21636XXSP,2013-09-04 10:35:00,
2013-09-04 12:40:00,70.9,61.8,30.32,ESE,122,1.0,2.0,73,0.00,BKN,,0.00,WeatherDisplay:10.37,2013-09-04 10:40:00,
2013-09-04 12:45:00,71.2,62.6,30.32,East,90,0.0,1.3,74,0.00,,,0.00,WUHU21636XXSP,2013-09-04 10:45:00,
2013-09-04 12:50:00,71.6,62.1,30.31,ESE,104,1.0,1.0,72,0.00,SCT,,0.00,WeatherDisplay:10.37,2013-09-04 10:50:00,
2013-09-04 12:55:00,71.4,61.3,30.32,ESE,113,0.0,1.3,70,0.00,,,0.00,WUHU21636XXSP,2013-09-04 10:55:00,
2013-09-04 13:00:00,72.3,62.0,30.32,SE,129,0.0,1.0,70,0.00,SCT,,0.00,WeatherDisplay:10.37,2013-09-04 11:00:00,
2013-09-04 13:05:00,72.3,62.2,30.32,SW,225,0.0,0.0,70,0.00,,,0.00,WUHU21636XXSP,2013-09-04 11:05:00,
2013-09-04 13:10:00,72.3,62.0,30.32,SSW,213,0.0,0.0,70,0.00,SCT,,0.00,WeatherDisplay:10.37,2013-09-04 11:10:00,
2013-09-04 13:15:00,73.2,62.2,30.32,SSW,203,0.0,0.0,68,0.00,,,0.00,WUHU21636XXSP,2013-09-04 11:15:00,
2013-09-04 13:20:00,74.8,62.3,30.32,SE,136,3.0,3.0,65,0.00,SCT,,0.00,WeatherDisplay:10.37,2013-09-04 11:20:00,
2013-09-04 13:25:00,74.8,62.9,30.32,SE,135,0.0,2.9,66,0.00,,,0.00,WUHU21636XXSP,2013-09-04 11:25:00,
2013-09-04 13:30:00,75.7,62.9,30.32,ESE,113,2.0,2.9,64,0.00,,,0.00,WUHU21636XXSP,2013-09-04 11:30:00,
2013-09-04 13:31:00,75.7,62.7,30.31,SE,133,2.0,3.0,64,0.00,SCT,,0.00,WeatherDisplay:10.37,2013-09-04 11:31:00,
2013-09-04 13:35:00,75.0,62.2,30.32,ESE,113,0.9,2.0,64,0.00,,,0.00,WUHU21636XXSP,2013-09-04 11:35:00,
2013-09-04 13:40:00,75.0,62.0,30.31,ESE,114,1.0,2.0,64,0.00,SCT,,0.00,WeatherDisplay:10.37,2013-09-04 11:40:00,
2013-09-04 13:45:00,74.1,62.2,30.31,SE,135,0.0,1.6,66,0.00,,,0.00,WUHU21636XXSP,2013-09-04 11:45:00,
2013-09-04 13:50:00,75.0,62.7,30.31,SE,135,0.0,1.6,65,0.00,,,0.00,WUHU21636XXSP,2013-09-04 11:50:00,
2013-09-04 13:52:00,75.0,62.5,30.30,ESE,118,0.0,2.0,65,0.00,BKN,,0.00,WeatherDisplay:10.37,2013-09-04 11:52:00,
2013-09-04 13:55:00,75.7,62.4,30.31,SE,135,0.9,0.9,63,0.00,,,0.00,WUHU21636XXSP,2013-09-04 11:55:00,
2013-09-04 14:00:00,75.7,62.2,30.30,SE,131,2.0,2.0,63,0.00,BKN,,0.00,WeatherDisplay:10.37,2013-09-04 12:00:00,
2013-09-04 14:05:00,75.2,62.0,30.31,ESE,113,2.0,2.0,63,0.00,,,0.00,WUHU21636XXSP,2013-09-04 12:05:00,
2013-09-04 14:10:00,75.2,61.7,30.30,ESE,112,2.0,2.0,63,0.00,BKN,,0.00,WeatherDisplay:10.37,2013-09-04 12:10:00,
2013-09-04 14:15:00,76.5,62.3,30.30,ESE,113,1.8,2.0,61,0.00,,,0.00,WUHU21636XXSP,2013-09-04 12:15:00,
2013-09-04 14:20:00,76.5,62.0,30.29,ESE,112,2.0,2.0,61,0.00,SCT,,0.00,WeatherDisplay:10.37,2013-09-04 12:20:00,
2013-09-04 14:25:00,75.2,62.4,30.30,SE,135,0.0,2.2,64,0.00,,,0.00,WUHU21636XXSP,2013-09-04 12:25:00,
2013-09-04 14:30:00,76.1,62.8,30.29,SE,135,0.0,2.2,63,0.00,,,0.00,WUHU21636XXSP,2013-09-04 12:30:00,
2013-09-04 14:35:00,75.9,61.7,30.29,SW,225,0.0,0.0,61,0.00,,,0.00,WUHU21636XXSP,2013-09-04 12:35:00,
2013-09-04 14:40:00,75.0,61.6,30.28,South,191,1.0,2.0,63,0.00,SCT,,0.00,WeatherDisplay:10.37,2013-09-04 12:40:00,
2013-09-04 14:45:00,74.3,62.0,30.29,WNW,293,0.0,0.7,65,0.00,,,0.00,WUHU21636XXSP,2013-09-04 12:45:00,
2013-09-04 14:50:00,73.8,61.5,30.29,West,270,1.3,1.3,65,0.00,,,0.00,WUHU21636XXSP,2013-09-04 12:50:00,
2013-09-04 14:55:00,73.8,61.5,30.29,WSW,248,0.0,1.3,65,0.00,,,0.00,WUHU21636XXSP,2013-09-04 12:55:00,
2013-09-04 15:00:00,74.5,61.7,30.29,WSW,248,0.0,1.3,64,0.00,,,0.00,WUHU21636XXSP,2013-09-04 13:00:00,
2013-09-04 15:05:00,74.5,62.2,30.29,West,270,0.4,0.4,65,0.00,,,0.00,WUHU21636XXSP,2013-09-04 13:05:00,
2013-09-04 15:10:00,74.1,61.6,30.28,WSW,255,0.0,1.0,65,0.00,FEW,,0.00,WeatherDisplay:10.37,2013-09-04 13:10:00,
2013-09-04 15:15:00,74.5,62.2,30.29,East,90,1.1,1.1,65,0.00,,,0.00,WUHU21636XXSP,2013-09-04 13:15:00,
2013-09-04 15:20:00,74.5,61.9,30.28,East,90,1.0,1.0,65,0.00,BKN,,0.00,WeatherDisplay:10.37,2013-09-04 13:20:00,
2013-09-04 15:25:00,75.4,61.2,30.28,WNW,293,0.4,1.1,61,0.00,,,0.00,WUHU21636XXSP,2013-09-04 13:25:00,
2013-09-04 15:30:00,75.4,61.0,30.27,WNW,297,0.0,1.0,61,0.00,BKN,,0.00,WeatherDisplay:10.37,2013-09-04 13:30:00,
2013-09-04 15:35:00,74.3,61.1,30.28,WNW,293,0.0,0.4,63,0.00,,,0.00,WUHU21636XXSP,2013-09-04 13:35:00,
2013-09-04 15:40:00,74.3,60.9,30.27,WNW,292,1.0,1.0,63,0.00,BKN,,0.00,WeatherDisplay:10.37,2013-09-04 13:40:00,
2013-09-04 15:45:00,74.5,61.3,30.28,WNW,293,0.0,0.9,63,0.00,,,0.00,WUHU21636XXSP,2013-09-04 13:45:00,
2013-09-04 15:50:00,74.5,61.1,30.27,WNW,292,0.0,1.0,63,0.00,SCT,,0.00,WeatherDisplay:10.37,2013-09-04 13:50:00,
2013-09-04 15:55:00,74.1,61.8,30.28,WNW,293,0.4,0.9,65,0.00,,,0.00,WUHU21636XXSP,2013-09-04 13:55:00,
2013-09-04 16:00:00,74.1,61.6,30.27,WNW,292,0.0,1.0,65,0.00,SCT,,0.00,WeatherDisplay:10.37,2013-09-04 14:00:00,
2013-09-04 16:05:00,73.9,60.7,30.27,WNW,293,0.0,0.4,63,0.00,,,0.00,WUHU21636XXSP,2013-09-04 14:05:00,
2013-09-04 16:10:00,73.8,61.1,30.27,WNW,293,0.0,0.0,64,0.00,,,0.00,WUHU21636XXSP,2013-09-04 14:10:00,
2013-09-04 16:15:00,73.6,60.9,30.27,WNW,293,0.0,0.0,64,0.00,,,0.00,WUHU21636XXSP,2013-09-04 14:15:00,
2013-09-04 16:20:00,73.6,60.6,30.26,WNW,292,0.0,0.0,64,0.00,BKN,,0.00,WeatherDisplay:10.37,2013-09-04 14:20:00,
2013-09-04 16:25:00,73.2,61.4,30.27,WNW,293,0.0,0.0,66,0.00,,,0.00,WUHU21636XXSP,2013-09-04 14:25:00,
2013-09-04 16:30:00,73.2,61.2,30.26,WNW,292,0.0,0.0,66,0.00,BKN,,0.00,WeatherDisplay:10.37,2013-09-04 14:30:00,
2013-09-04 16:35:00,73.4,61.1,30.27,West,270,0.0,0.0,65,0.00,,,0.00,WUHU21636XXSP,2013-09-04 14:35:00,
2013-09-04 16:40:00,73.6,61.1,30.26,West,270,1.0,1.0,65,0.00,BKN,,0.00,WeatherDisplay:10.37,2013-09-04 14:40:00,
2013-09-04 16:45:00,73.4,61.6,30.27,West,270,0.0,0.7,66,0.00,,,0.00,WUHU21636XXSP,2013-09-04 14:45:00,
2013-09-04 16:50:00,74.1,61.4,30.27,West,270,0.0,0.7,64,0.00,,,0.00,WUHU21636XXSP,2013-09-04 14:50:00,
2013-09-04 16:55:00,74.7,61.0,30.27,West,270,0.0,0.0,62,0.00,,,0.00,WUHU21636XXSP,2013-09-04 14:55:00,
2013-09-04 17:00:00,74.7,60.8,30.26,West,270,0.0,1.0,62,0.00,FEW,,0.00,WeatherDisplay:10.37,2013-09-04 15:00:00,
2013-09-04 17:05:00,75.4,61.2,30.26,WNW,293,1.3,2.0,61,0.00,,,0.00,WUHU21636XXSP,2013-09-04 15:05:00,
2013-09-04 17:10:00,75.4,61.0,30.25,WNW,289,1.0,2.0,61,0.00,FEW,,0.00,WeatherDisplay:10.37,2013-09-04 15:10:00,
2013-09-04 17:15:00,76.3,61.6,30.26,WNW,293,0.0,1.3,60,0.00,,,0.00,WUHU21636XXSP,2013-09-04 15:15:00,
2013-09-04 17:20:00,76.6,61.7,30.25,WNW,292,2.0,2.0,60,0.00,FEW,,0.00,WeatherDisplay:10.37,2013-09-04 15:20:00,
2013-09-04 17:25:00,76.6,60.9,30.26,WNW,293,0.0,1.8,58,0.00,,,0.00,WUHU21636XXSP,2013-09-04 15:25:00,
2013-09-04 17:30:00,76.6,60.8,30.25,WNW,292,0.0,2.0,58,0.00,FEW,,0.00,WeatherDisplay:10.37,2013-09-04 15:30:00,
2013-09-04 17:35:00,75.9,60.3,30.26,WNW,293,0.0,0.0,58,0.00,,,0.00,WUHU21636XXSP,2013-09-04 15:35:00,
2013-09-04 17:40:00,75.9,60.1,30.25,WNW,292,0.0,0.0,58,0.00,FEW,,0.00,WeatherDisplay:10.37,2013-09-04 15:40:00,
2013-09-04 17:45:00,76.6,61.4,30.25,WNW,293,0.0,0.0,59,0.00,,,0.00,WUHU21636XXSP,2013-09-04 15:45:00,
2013-09-04 17:50:00,75.7,60.9,30.25,WNW,292,0.0,0.0,60,0.00,FEW,,0.00,WeatherDisplay:10.37,2013-09-04 15:50:00,
2013-09-04 17:55:00,75.2,60.1,30.25,WNW,293,0.0,0.0,59,0.00,,,0.00,WUHU21636XXSP,2013-09-04 15:55:00,
2013-09-04 18:00:00,75.2,59.9,30.24,WNW,292,0.0,0.0,59,0.00,FEW,,0.00,WeatherDisplay:10.37,2013-09-04 16:00:00,
2013-09-04 18:05:00,75.2,60.1,30.25,WNW,293,0.0,0.0,59,0.00,,,0.00,WUHU21636XXSP,2013-09-04 16:05:00,
2013-09-04 18:10:00,75.2,59.9,30.24,WNW,292,0.0,0.0,59,0.00,FEW,,0.00,WeatherDisplay:10.37,2013-09-04 16:10:00,
2013-09-04 18:15:00,75.4,61.2,30.24,WNW,293,0.0,0.4,61,0.00,,,0.00,WUHU21636XXSP,2013-09-04 16:15:00,
2013-09-04 18:20:00,75.2,60.6,30.24,WNW,293,0.0,0.4,60,0.00,,,0.00,WUHU21636XXSP,2013-09-04 16:20:00,
2013-09-04 18:25:00,74.8,60.2,30.24,WNW,293,0.4,0.4,60,0.00,,,0.00,WUHU21636XXSP,2013-09-04 16:25:00,
2013-09-04 18:30:00,74.7,60.6,30.24,WNW,293,1.3,1.3,61,0.00,,,0.00,WUHU21636XXSP,2013-09-04 16:30:00,
2013-09-04 18:35:00,74.5,60.4,30.24,WNW,293,0.0,1.3,61,0.00,,,0.00,WUHU21636XXSP,2013-09-04 16:35:00,
2013-09-04 18:40:00,74.5,60.1,30.24,WNW,292,0.0,1.0,61,0.00,FEW,,0.00,WeatherDisplay:10.37,2013-09-04 16:40:00,
2013-09-04 18:45:00,73.9,61.6,30.24,WNW,293,0.0,0.0,65,0.00,,,0.00,WUHU21636XXSP,2013-09-04 16:45:00,
2013-09-04 18:50:00,73.2,60.7,30.23,WNW,292,0.0,0.0,65,0.00,FEW,,0.00,WeatherDisplay:10.37,2013-09-04 16:50:00,
2013-09-04 18:55:00,73.0,61.2,30.24,WNW,293,0.0,0.0,66,0.00,,,0.00,WUHU21636XXSP,2013-09-04 16:55:00,
2013-09-04 19:00:00,72.3,61.2,30.23,WNW,292,0.0,0.0,68,0.00,FEW,,0.00,WeatherDisplay:10.37,2013-09-04 17:00:00,
2013-09-04 19:05:00,72.1,61.2,30.24,WNW,293,0.0,0.0,68,0.00,,,0.00,WUHU21636XXSP,2013-09-04 17:05:00,
2013-09-04 19:10:00,72.1,61.0,30.23,WNW,292,0.0,0.0,68,0.00,FEW,,0.00,WeatherDisplay:10.37,2013-09-04 17:10:00,
2013-09-04 19:15:00,70.3,61.0,30.24,WNW,293,0.0,0.0,72,0.00,,,0.00,WUHU21636XXSP,2013-09-04 17:15:00,
2013-09-04 19:20:00,70.3,60.9,30.23,WNW,292,0.0,0.0,72,0.00,FEW,,0.00,WeatherDisplay:10.37,2013-09-04 17:20:00,
2013-09-04 19:25:00,70.0,60.7,30.24,WNW,293,0.0,0.0,72,0.00,,,0.00,WUHU21636XXSP,2013-09-04 17:25:00,
2013-09-04 19:30:00,69.6,60.6,30.23,WNW,292,0.0,0.0,73,0.00,FEW,,0.00,WeatherDisplay:10.37,2013-09-04 17:30:00,
2013-09-04 19:35:00,69.6,60.7,30.23,WNW,293,0.0,0.0,73,0.00,,,0.00,WUHU21636XXSP,2013-09-04 17:35:00,
2013-09-04 19:40:00,69.6,60.6,30.22,WNW,292,0.0,0.0,73,0.00,FEW,,0.00,WeatherDisplay:10.37,2013-09-04 17:40:00,
2013-09-04 19:45:00,69.1,60.2,30.24,WNW,293,0.0,0.0,73,0.00,,,0.00,WUHU21636XXSP,2013-09-04 17:45:00,
2013-09-04 19:50:00,68.9,60.0,30.24,WNW,293,0.0,0.0,73,0.00,,,0.00,WUHU21636XXSP,2013-09-04 17:50:00,
2013-09-04 19:55:00,68.7,59.8,30.24,WNW,293,0.0,0.0,73,0.00,,,0.00,WUHU21636XXSP,2013-09-04 17:55:00,
2013-09-04 20:00:00,68.4,59.6,30.24,WNW,293,0.0,0.0,73,0.00,,,0.00,WUHU21636XXSP,2013-09-04 18:00:00,
2013-09-04 20:05:00,68.0,59.5,30.24,West,270,0.0,0.0,74,0.00,,,0.00,WUHU21636XXSP,2013-09-04 18:05:00,
2013-09-04 20:10:00,67.6,59.4,30.23,West,278,0.0,0.0,75,0.00,CLR,,0.00,WeatherDisplay:10.37,2013-09-04 18:10:00,
2013-09-04 20:15:00,67.3,59.2,30.24,SE,135,0.0,0.0,75,0.00,,,0.00,WUHU21636XXSP,2013-09-04 18:15:00,
2013-09-04 20:20:00,67.1,59.4,30.24,SE,135,0.0,0.0,76,0.00,,,0.00,WUHU21636XXSP,2013-09-04 18:20:00,
2013-09-04 20:21:00,67.3,59.1,30.23,SE,135,0.0,0.0,75,0.00,CLR,,0.00,WeatherDisplay:10.37,2013-09-04 18:21:00,
2013-09-04 20:25:00,66.9,59.2,30.24,SE,135,0.0,0.0,76,0.00,,,0.00,WUHU21636XXSP,2013-09-04 18:25:00,
2013-09-04 20:30:00,66.6,59.1,30.24,SE,135,0.0,0.0,77,0.00,CLR,,0.00,WeatherDisplay:10.37,2013-09-04 18:30:00,
2013-09-04 20:35:00,66.4,59.1,30.24,SE,135,0.0,0.0,77,0.00,,,0.00,WUHU21636XXSP,2013-09-04 18:35:00,
2013-09-04 20:40:00,66.0,59.0,30.24,SE,135,0.0,0.0,78,0.00,CLR,,0.00,WeatherDisplay:10.37,2013-09-04 18:40:00,
2013-09-04 20:45:00,65.8,59.2,30.24,SE,135,0.0,0.0,79,0.00,,,0.00,WUHU21636XXSP,2013-09-04 18:45:00,
2013-09-04 20:50:00,65.8,59.1,30.24,SE,135,0.0,0.0,79,0.00,CLR,,0.00,WeatherDisplay:10.37,2013-09-04 18:50:00,
2013-09-04 20:55:00,65.3,58.7,30.24,SE,135,0.0,0.0,79,0.00,,,0.00,WUHU21636XXSP,2013-09-04 18:55:00,
2013-09-04 21:00:00,64.9,58.7,30.24,SE,135,0.0,0.0,80,0.00,,,0.00,WUHU21636XXSP,2013-09-04 19:00:00,
2013-09-04 21:01:00,65.3,58.6,30.23,SE,135,0.0,0.0,79,0.00,CLR,,0.00,WeatherDisplay:10.37,2013-09-04 19:01:00,
2013-09-04 21:05:00,64.8,58.6,30.24,SE,135,0.0,0.0,80,0.00,,,0.00,WUHU21636XXSP,2013-09-04 19:05:00,
2013-09-04 21:10:00,64.6,58.6,30.23,SE,137,0.0,0.0,81,0.00,CLR,,0.00,WeatherDisplay:10.37,2013-09-04 19:10:00,
2013-09-04 21:15:00,64.2,58.3,30.24,SSE,158,0.0,0.0,81,0.00,,,0.00,WUHU21636XXSP,2013-09-04 19:15:00,
2013-09-04 21:20:00,64.2,58.3,30.23,SSE,158,0.0,0.0,81,0.00,CLR,,0.00,WeatherDisplay:10.37,2013-09-04 19:20:00,
2013-09-04 21:25:00,63.7,58.1,30.24,SE,135,1.3,1.3,82,0.00,,,0.00,WUHU21636XXSP,2013-09-04 19:25:00,
2013-09-04 21:30:00,63.7,58.1,30.23,SE,135,1.0,1.0,82,0.00,CLR,,0.00,WeatherDisplay:10.37,2013-09-04 19:30:00,
2013-09-04 21:35:00,63.3,57.8,30.24,SE,135,0.0,1.3,82,0.00,,,0.00,WUHU21636XXSP,2013-09-04 19:35:00,
2013-09-04 21:40:00,63.1,57.9,30.23,SE,135,0.0,1.0,83,0.00,CLR,,0.00,WeatherDisplay:10.37,2013-09-04 19:40:00,
2013-09-04 21:45:00,62.8,57.6,30.24,SE,135,0.0,0.0,83,0.00,,,0.00,WUHU21636XXSP,2013-09-04 19:45:00,
2013-09-04 21:50:00,62.4,57.5,30.24,SE,135,0.0,0.0,84,0.00,,,0.00,WUHU21636XXSP,2013-09-04 19:50:00,
2013-09-04 21:55:00,62.2,57.3,30.24,SE,135,2.2,2.2,84,0.00,,,0.00,WUHU21636XXSP,2013-09-04 19:55:00,
2013-09-04 22:00:00,62.2,57.3,30.24,SE,135,0.0,2.2,84,0.00,,,0.00,WUHU21636XXSP,2013-09-04 20:00:00,
2013-09-04 22:05:00,61.9,57.0,30.24,SE,135,0.0,2.2,84,0.00,,,0.00,WUHU21636XXSP,2013-09-04 20:05:00,
2013-09-04 22:10:00,61.9,57.0,30.23,SE,135,0.0,2.0,84,0.00,CLR,,0.00,WeatherDisplay:10.37,2013-09-04 20:10:00,
2013-09-04 22:15:00,61.5,57.0,30.24,SE,135,0.0,0.0,85,0.00,,,0.00,WUHU21636XXSP,2013-09-04 20:15:00,
2013-09-04 22:20:00,61.3,56.8,30.23,SE,135,0.0,0.0,85,0.00,CLR,,0.00,WeatherDisplay:10.37,2013-09-04 20:20:00,
2013-09-04 22:25:00,61.2,56.7,30.24,SE,135,0.0,0.0,85,0.00,,,0.00,WUHU21636XXSP,2013-09-04 20:25:00,
2013-09-04 22:30:00,61.2,56.6,30.23,SE,135,0.0,0.0,85,0.00,CLR,,0.00,WeatherDisplay:10.37,2013-09-04 20:30:00,
2013-09-04 22:35:00,61.0,56.8,30.24,ESE,113,0.0,3.1,86,0.00,,,0.00,WUHU21636XXSP,2013-09-04 20:35:00,
2013-09-04 22:40:00,60.8,56.6,30.23,ESE,114,0.0,3.0,86,0.00,CLR,,0.00,WeatherDisplay:10.37,2013-09-04 20:40:00,
2013-09-04 22:45:00,60.6,56.4,30.24,SE,135,0.9,0.9,86,0.00,,,0.00,WUHU21636XXSP,2013-09-04 20:45:00,
2013-09-04 22:50:00,60.4,56.2,30.23,SE,133,0.0,1.0,86,0.00,CLR,,0.00,WeatherDisplay:10.37,2013-09-04 20:50:00,
2013-09-04 22:55:00,60.4,56.2,30.24,SE,135,0.0,0.9,86,0.00,,,0.00,WUHU21636XXSP,2013-09-04 20:55:00,
2013-09-04 23:00:00,60.4,56.2,30.23,SE,135,0.0,0.0,86,0.00,CLR,,0.00,WeatherDisplay:10.37,2013-09-04 21:00:00,
2013-09-04 23:05:00,60.1,56.2,30.24,SE,135,1.3,1.3,87,0.00,,,0.00,WUHU21636XXSP,2013-09-04 21:05:00,
2013-09-04 23:10:00,60.1,56.2,30.23,SE,135,1.0,1.0,87,0.00,CLR,,0.00,WeatherDisplay:10.37,2013-09-04 21:10:00,
2013-09-04 23:15:00,59.7,55.8,30.24,SE,135,0.0,2.0,87,0.00,,,0.00,WUHU21636XXSP,2013-09-04 21:15:00,
2013-09-04 23:20:00,59.7,55.8,30.23,SE,134,0.0,2.0,87,0.00,CLR,,0.00,WeatherDisplay:10.37,2013-09-04 21:20:00,
2013-09-04 23:25:00,59.5,55.6,30.24,SE,135,2.0,2.0,87,0.00,,,0.00,WUHU21636XXSP,2013-09-04 21:25:00,
2013-09-04 23:30:00,59.5,55.6,30.24,SE,135,0.0,2.0,87,0.00,,,0.00,WUHU21636XXSP,2013-09-04 21:30:00,
2013-09-04 23:31:00,59.5,55.7,30.23,SE,131,2.0,2.0,87,0.00,CLR,,0.00,WeatherDisplay:10.37,2013-09-04 21:31:00,
2013-09-04 23:35:00,59.5,55.9,30.24,SE,135,1.1,2.0,88,0.00,,,0.00,WUHU21636XXSP,2013-09-04 21:35:00,
2013-09-04 23:40:00,59.5,56.0,30.23,SE,135,1.0,1.0,88,0.00,CLR,,0.00,WeatherDisplay:10.37,2013-09-04 21:40:00,
2013-09-04 23:45:00,59.2,55.6,30.24,ESE,113,2.5,2.5,88,0.00,,,0.00,WUHU21636XXSP,2013-09-04 21:45:00,
2013-09-04 23:50:00,59.2,55.6,30.23,ESE,122,2.0,2.0,88,0.00,CLR,,0.00,WeatherDisplay:10.37,2013-09-04 21:50:00,
2013-09-04 23:55:00,59.2,55.6,30.24,SE,135,0.9,2.5,88,0.00,,,0.00,WUHU21636XXSP,2013-09-04 21:55:00,